Kailua Kona, HI

7:09 AM HST on December 10, 2016 (GMT -1000)
Kona International At Keahole

Weather History for PHKO - June, 2014

Change the Weather History Date:

Saturday, June 14, 2014

  Actual Average Record
Temperature  
Mean Temperature 80 °F -  
Max Temperature 86 °F 81 °F 90 °F (1986)
Min Temperature 75 °F 72 °F 70 °F (1983)
Cooling Degree Days 16    
Growing Degree Days 30 (Base 50)    
Moisture  
Dew Point 66 °F    
Average Humidity 60    
Maximum Humidity 74    
Minimum Humidity 48    
Precipitation  
Precipitation 0.00 in - - ()
Sea Level Pressure  
Sea Level Pressure 29.97 in    
Wind  
Wind Speed 8 mph (SSW)    
Max Wind Speed 20 mph    
Max Gust Speed 29 mph    
Visibility 10 miles    
Events      
Averages and records for this station are not official NWS values.
T = Trace of Precipitation, MM = Missing Value Source: NWS Daily Summary

Daily Weather History Graph

Daily Weather History Graph

Search for Another Location

Airport or City:

Trip Planner

Search our weather history database for the weather conditions in past years. The results will help you decide how hot, cold, wet, or windy it might be!

Date:

Astronomy

Jun. 14, 2014 Rise Set
Actual Time 5:45 AM HST 7:04 PM HST
Civil Twilight 5:20 AM HST 7:28 PM HST
Nautical Twilight 4:51 AM HST 7:57 PM HST
Astronomical Twilight 4:21 AM HST 8:27 PM HST
Moon 8:52 PM HST (6/14) 7:28 AM HST (6/14)
Length of Visible Light 14h 07m
Length of Day
13h 19m
Waning Gibbous, 96% of the Moon is Illuminated
Jun 14
Waning Gibbous
Jun 19
Last Quarter
Jun 26
New
Jul 5
First Quarter
Jul 12
Full

Hourly Weather History & Observations

Time (HST) Temp. Heat Index Dew Point Humidity Pressure Visibility Wind Dir Wind Speed Gust Speed Precip Events Conditions
12:53 AM 77.0 °F - 64.0 °F 64% 29.97 in 10.0 mi North 5.8 mph - N/A   Clear
1:53 AM 75.9 °F - 64.0 °F 67% 29.96 in 10.0 mi Calm Calm - N/A   Scattered Clouds
2:53 AM 75.9 °F - 63.0 °F 64% 29.95 in 10.0 mi East 6.9 mph - N/A   Overcast
3:53 AM 75.9 °F - 66.9 °F 74% 29.95 in 10.0 mi East 5.8 mph - N/A   Mostly Cloudy
4:53 AM 75.0 °F - 66.0 °F 73% 29.95 in 10.0 mi East 6.9 mph - N/A   Partly Cloudy
5:53 AM 75.0 °F - 64.9 °F 71% 29.96 in 10.0 mi East 6.9 mph - N/A   Clear
6:53 AM 78.1 °F - 66.0 °F 66% 29.99 in 10.0 mi ESE 5.8 mph - N/A   Clear
7:53 AM 81.0 °F 83.0 °F 66.0 °F 60% 29.99 in 10.0 mi SE 8.1 mph - N/A   Clear
8:53 AM 82.0 °F 84.5 °F 66.9 °F 60% 30.01 in 10.0 mi SSW 8.1 mph - N/A   Overcast
9:53 AM 82.9 °F 85.4 °F 66.9 °F 58% 30.01 in 10.0 mi WSW 8.1 mph - N/A   Clear
10:53 AM 82.0 °F 84.9 °F 68.0 °F 62% 30.01 in 10.0 mi SW 8.1 mph - N/A   Mostly Cloudy
11:53 AM 86.0 °F 89.4 °F 68.0 °F 55% 30.00 in 10.0 mi SW 10.4 mph - N/A   Partly Cloudy
12:29 PM 84.2 °F 86.6 °F 66.2 °F 55% 29.99 in 10.0 mi SW 10.4 mph - N/A   Scattered Clouds
12:53 PM 84.0 °F 86.5 °F 66.9 °F 56% 29.99 in 10.0 mi SW 11.5 mph - N/A   Overcast
1:06 PM 84.2 °F 86.6 °F 66.2 °F 55% 29.99 in 10.0 mi SW 12.7 mph - N/A   Overcast
1:53 PM 84.0 °F 86.5 °F 66.9 °F 56% 29.98 in 10.0 mi WSW 10.4 mph - N/A   Overcast
2:05 PM 84.2 °F 86.6 °F 66.2 °F 55% 29.98 in 10.0 mi SW 10.4 mph - N/A   Overcast
2:07 PM 84.2 °F 86.6 °F 66.2 °F 55% 29.98 in 10.0 mi SW 9.2 mph - N/A   Overcast
2:53 PM 82.9 °F 85.4 °F 66.9 °F 58% 29.97 in 10.0 mi SW 6.9 mph - N/A   Overcast
3:00 PM 82.4 °F 84.6 °F 66.2 °F 58% 29.97 in 10.0 mi SW 9.2 mph - N/A   Overcast
3:53 PM 82.9 °F 85.4 °F 66.9 °F 58% 29.96 in 10.0 mi SW 9.2 mph - N/A   Overcast
4:14 PM 84.2 °F 86.6 °F 66.2 °F 55% 29.95 in 10.0 mi SW 10.4 mph - N/A   Overcast
4:44 PM 84.2 °F 86.6 °F 66.2 °F 55% 29.94 in 10.0 mi SW 10.4 mph - N/A   Scattered Clouds
4:53 PM 82.9 °F 85.8 °F 68.0 °F 60% 29.94 in 10.0 mi WSW 11.5 mph - N/A   Scattered Clouds
5:00 PM 84.2 °F 86.6 °F 66.2 °F 55% 29.94 in 10.0 mi SW 11.5 mph - N/A   Overcast
5:18 PM 84.2 °F 86.6 °F 66.2 °F 55% 29.94 in 10.0 mi SW 11.5 mph - N/A   Overcast
5:53 PM 82.9 °F 85.4 °F 66.9 °F 58% 29.94 in 10.0 mi SW 9.2 mph - N/A   Scattered Clouds
6:00 PM 82.4 °F 84.6 °F 66.2 °F 58% 29.94 in 10.0 mi WSW 9.2 mph - N/A   Overcast
6:53 PM 82.9 °F 83.7 °F 62.1 °F 49% 29.95 in 10.0 mi NE 17.3 mph 20.7 mph N/A   Mostly Cloudy
7:11 PM 82.4 °F 82.9 °F 60.8 °F 48% 29.95 in 10.0 mi NE 19.6 mph 28.8 mph N/A   Overcast
7:53 PM 81.0 °F 81.6 °F 60.1 °F 49% 29.96 in 10.0 mi NE 12.7 mph - N/A   Partly Cloudy
8:53 PM 79.0 °F - 66.9 °F 66% 29.98 in 10.0 mi ESE 8.1 mph - N/A   Clear
9:53 PM 78.1 °F - 66.0 °F 66% 29.99 in 10.0 mi ESE 10.4 mph - N/A   Clear
10:53 PM 78.1 °F - 66.0 °F 66% 30.00 in 10.0 mi East 6.9 mph - N/A   Clear
11:53 PM 77.0 °F - 64.9 °F 66% 29.99 in 10.0 mi NE 3.5 mph - N/A   Scattered Clouds